{"data":{"norad_id":50171,"intl_designator":"2021-125R","name":"STARLINK-3286","alt_names":[],"object_type":"PAYLOAD","status":"ACTIVE","operator":null,"country":"US","launch_date":"2021-12-18","launch_site_code":"AFWTR","launch_vehicle":null,"mission":null,"orbit_class":"UNKNOWN","rcs_meters":null,"size_class":null,"mass_kg":null,"dimensions":null,"purposes":["comms"],"wikipedia_slug":null,"has_3d_model":false,"image_url":null,"decayed_at":null,"tle_current":{"epoch":"2026-05-25T00:37:27.336576Z","epoch_age_seconds":69274,"freshness":"FRESH","line1":"1 50171U 21125R   26145.02601084 -.00000407  00000+0 -74787-5 0  9994","line2":"2 50171  53.2158 266.4324 0001325 103.0913 257.0227 15.08833279248123","mean_motion":15.08833279,"eccentricity":0.0001325,"inclination_deg":53.2158,"raan_deg":266.4324,"arg_perigee_deg":103.0913,"mean_anomaly_deg":257.0227,"bstar":-7.4787e-6,"rev_number":24812,"period_min":95.437979798164,"perigee_km":538.84731057504,"apogee_km":540.68055432213,"semimajor_km":6917.9009324486,"source":"CELESTRAK","updated_at":"2026-05-25T13:38:16.843963Z"}}}